Pagrindinis puslapis
METAR-TAF:

METAR-TAF

Oro uostai :

Lycksele, Švedija

platuma: 64-32-51N, ilguma: 018-43-03E, Aukštis: 211 m

Dabartinis oras

Ataskaita buvo paskelbta 21 minutes, ne 22:20 UTC
Vėjas 5 kt iš Rytų/Pietryčių
Temperatūra -4°C
Drėgmė 74%
Slėgis 1022 hPa
Matomumas 10 km arba daugiau

METAR: ESNL 052220Z AUTO 12005KT 9999 SCT048/// M04/M08 Q1022

Laikas: 00:41 (22:41 UTC)


TAF: trūkstamas

Orai ataskaitas ir orų prognozės (METAR, TAF).

turimą stotys yra geltonos ir raudonos taškus žemėlapyje.

Perkelti pele per norėdami pamatyti stoties vardą.

Tada spustelėkite, norėdami matyti oro stebėjimo ir prognozės.

Norėdami pakeisti žemėlapį: spustelėkite ant žalios mygtukų su juodo kryžiaus žemyn,; žalią mygtuką su brūkšneliu, jei norite nutolinti; arba žalių rodyklių gretimoms žemėlapius.


METAR-TAF: